{"data":{"norad_id":59960,"epoch":"2026-05-25T01:57:35.271072Z","epoch_age_seconds":67964,"freshness":"FRESH","line1":"1 59960U 24107R   26145.08165823  .00000153  00000+0  17278-4 0  9991","line2":"2 59960  53.1595  70.6107 0001267  83.3071 276.8074 15.30224122111490","mean_motion":15.30224122,"eccentricity":0.0001267,"inclination_deg":53.1595,"raan_deg":70.6107,"arg_perigee_deg":83.3071,"mean_anomaly_deg":276.8074,"bstar":1.7278e-5,"rev_number":11149,"period_min":94.103862257636,"perigee_km":474.2747358396,"apogee_km":476.01135700336,"semimajor_km":6853.2800464215,"source":"CELESTRAK","updated_at":"2026-05-25T13:38:19.129669Z"}}